Flag for Germany Weather past 2 weeks in Rheda-Wiedenbrück, North Rhine-Westphalia, Germany

Now
36 °F

Partly cloudy.


Feels Like: 31 °F
Forecast: 35 / 42 °F
Wind: 6 mph from West

Location: Paderborn / Lippstadt

Current Time: Jan 27, 2015 at 6:14:44 PM

Latest Report: Jan 27, 2015 at 5:50 PM


Visibility: N/A

Pressure: 30.12 "Hg

Humidity: 100%

Dew point: 36 °F

Location of Rheda-WiedenbrückLocation

Historic Weather in Rheda-Wiedenbrück — Graph

°F

Rheda-Wiedenbrück temperature yesterday

Maximum temperature yesterday: 39 °F (at 6:20 PM)
Minimum temperature yesterday: 34 °F (at 12:20 AM)
Average temperature yesterday: 36 °F

Past Weeks' High & Low Weather Summary

 TemperatureHumidityPressure
High52 °F (Jan 13, 12:50 PM)100% (Jan 17, 6:20 AM)30.36 "Hg (Jan 17, 6:20 AM)
Low21 °F (Jan 24, 4:20 AM)54% (Jan 13, 12:50 PM)29.47 "Hg (Jan 15, 3:20 PM)
Average35 °F84%29.94 "Hg
* Reported Jan 12 5:20 PM — Jan 27 5:20 PM, Rheda-Wiedenbrück, Weather by CustomWeather, © 2014

Note: Actual official high and low records may vary slightly from our data, if they occured in-between our weather recording intervals... More about our weather records

Advertising

Rheda-Wiedenbrück weather history for previous 24 hours

 ConditionsComfort  
Time TempWeatherWind HumidityBarometerVisibility
5:20 PM
Jan 27
36 °FPassing clouds.5 mph100%30.12 "Hg6 mi
4:50 PM34 °FLight rain. Broken clouds.7 mph100%30.12 "HgN/A
4:20 PM34 °FPartly sunny.5 mph100%30.12 "HgN/A
3:50 PM36 °FBroken clouds.7 mph100%30.09 "HgN/A
3:20 PM37 °FLight rain. Partly sunny.10 mph93%30.09 "Hg6 mi
2:50 PM37 °FPartly sunny.8 mph100%30.09 "Hg6 mi
2:20 PM37 °FPartly sunny.9 mph100%30.09 "Hg6 mi
1:50 PM37 °FPartly sunny.10 mph100%30.09 "Hg6 mi
1:20 PM37 °FPartly sunny.9 mph93%30.09 "Hg6 mi
12:50 PM37 °FPartly sunny.9 mph93%30.12 "Hg6 mi
12:20 PM36 °FLight rain. Partly sunny.9 mph100%30.09 "HgN/A
11:50 AM36 °FLight rain. Partly sunny.9 mph100%30.12 "HgN/A
11:20 AM36 °FPartly sunny.7 mph93%30.12 "Hg6 mi
10:50 AM36 °FPartly sunny.9 mph93%30.12 "Hg6 mi
10:20 AM36 °FPartly sunny.9 mph93%30.12 "HgN/A
9:50 AM34 °FBroken clouds.7 mph100%30.12 "HgN/A
9:20 AM34 °FLight rain. Partly sunny.9 mph100%30.09 "HgN/A
8:50 AM34 °FPartly sunny.9 mph100%30.09 "HgN/A
8:20 AM34 °FPartly sunny.12 mph100%30.09 "HgN/A
7:50 AM34 °FPassing clouds.9 mph100%30.09 "HgN/A
7:20 AM34 °FPassing clouds.9 mph100%30.09 "HgN/A
6:50 AM32 °FLight rain. Passing clouds.9 mph100%30.09 "Hg3 mi
6:20 AM34 °FLight rain. Passing clouds.8 mph100%30.07 "HgN/A
5:50 AM34 °FLight rain. Passing clouds.8 mph93%30.09 "HgN/A
5:20 AM34 °FLight rain. Fog.12 mph100%30.07 "Hg3 mi
4:50 AM34 °FLight rain. Passing clouds.9 mph100%30.07 "HgN/A
4:20 AM34 °FLight rain. Passing clouds.9 mph100%30.07 "HgN/A
3:50 AM34 °FLight rain. Passing clouds.10 mph100%30.07 "HgN/A
3:20 AM36 °FLight rain. Passing clouds.9 mph93%30.07 "HgN/A
2:50 AM36 °FLight rain. Passing clouds.8 mph93%30.07 "HgN/A
2:20 AM36 °FLight rain. Passing clouds.9 mph93%30.04 "HgN/A
1:50 AM36 °FLight rain. Passing clouds.9 mph100%30.04 "HgN/A
1:20 AM36 °FLight rain. Passing clouds.10 mph100%30.04 "HgN/A
12:50 AM36 °FLight rain. Passing clouds.8 mph100%30.04 "HgN/A
12:20 AM36 °FLight rain. Passing clouds.9 mph100%30.04 "HgN/A
11:50 PM
Jan 26
36 °FLight rain. Low clouds.10 mph100%30.04 "HgN/A
11:20 PM37 °FLight rain. Passing clouds.9 mph93%30.04 "HgN/A
10:50 PM37 °FLight rain. Passing clouds.8 mph93%30.04 "HgN/A
10:20 PM36 °FLight rain. Passing clouds.9 mph100%30.01 "HgN/A
9:59 PM37 °FRain. Passing clouds.13 mph93%30.01 "Hg2 mi
9:20 PM37 °FLight rain. Passing clouds.10 mph100%30.01 "HgN/A
8:50 PM39 °FLight rain. Passing clouds.10 mph93%30.01 "HgN/A
8:20 PM39 °FLight rain. Low clouds.12 mph100%30.01 "HgN/A
7:50 PM39 °FLight rain. Low clouds.10 mph100%29.98 "HgN/A
7:20 PM39 °FLight rain. Low clouds.9 mph100%29.98 "HgN/A
6:50 PM39 °FLight rain. Low clouds.10 mph100%29.98 "HgN/A
6:20 PM39 °FLight rain. Low clouds.13 mph100%29.98 "Hg4 mi
Weather by CustomWeather, © 2014

See weather overviewHow to use our weather pages